sat.trackr.live / text

‹ back to catalog

LEMUR-2-PEGGY-2004

NORAD 68479 · 2026-067BR

PAYLOAD ACTIVE UNKNOWN

§ Identity

Operator
Country
LUXE
Launch date
2026-03-30
Launch site
AFWTR
Launch vehicle
Mass (kg)
RCS (m²)

External: N2YO · Heavens-Above · Gunter

§ Orbital elements

Epoch: 2026-05-25T03:47:29.615424Z

Period
96.49 min
Inclination
97.7529°
Eccentricity
0.0002031
Mean motion
14.92415562 rev/d
Perigee alt
589.0 km
Apogee alt
591.8 km
Semi-major
6,968.5 km
B*
5.8978e-4
RAAN
103.7781°
Arg perigee
48.1614°
Mean anomaly
311.9778°
Rev number
829

§ Raw data

LEMUR-2-PEGGY-20041 68479U 26067BR  26145.15798166  .00005988  00000+0  58978-3 0  99952 68479  97.7529 103.7781 0002031  48.1614 311.9778 14.92415562  8296

JSON: /api/v1/satellites/68479 · /tle

For live sub-satellite position, see the globe view (requires WebGL).

§ Visibility from observer

Set your observer location to see the next 7 days of passes ≥ 10°. The values pass through the URL so the page stays shareable.

No JS? Fill the form by hand. The geolocation button needs JavaScript.